Location: Antin
(43.3330°N, 0.2804°E)
Time: 22:45:17
(UTC+00:00)

Okean O Rocket - Pass Details

Date: 16 October 2021
Orbit: 623 x 643 km, 98.2° (Epoch: 04 December)

Event Time Altitude Azimuth Distance (km) Brightness Sun altitude
Rises 17:55:01 0° 157° (SSE) 2,891 4.8 -8.2°
Reaches altitude 10° 17:57:13 10° 154° (SSE) 1,989 4.0 -8.6°
Maximum altitude 18:01:29 63° 73° (ENE) 697 1.6 -9.4°
Drops below altitude 10° 18:05:48 10° 353° (N) 2,007 4.2 -10.2°
Sets 18:08:01 0° 350° (N) 2,920 5.1 -10.6°
